LUCH 5A

Last updated on Thu Mar 05 2026 00:02:43 GMT+0000 (Coordinated Universal Time)

1 37951U 11074B 26062.83352980 -.00000057 00000+0 00000+0 0 9993 2 37951 8.4858 75.3546 0004005 243.8626 309.5287 1.00275356 51997
UTC large
Height (km)
Speed (km/s)
/
Latitude / Longitude
Inclination (degrees)
Orbital Period (minutes)
Azimuth
Elevation
Range (km)
Doppler Factor

Next 0 passes for location: London (51.5072 / 0.1276)

Sorry there are no passes over London.